CW9861 Weather Reports


time (UTC)temp
C
wind
direction
speed
KPH
gust
KPH
rain 1hr
cm
rain 24hr
cm
rain mn
cm
humidity
%
barometer
mb
20260505190957 13 231 6.4 27.4 0.00 0.00 0.00 41 1006.3
20260505190456 13 234 9.7 27.4 0.00 0.00 0.00 44 1006.2
20260505185957 12 333 12.9 22.5 0.00 0.00 0.00 40 1006.2
20260505185457 12 226 11.3 25.7 0.00 0.00 0.00 42 1006.2
20260505184957 12 229 11.3 25.7 0.00 0.00 0.00 40 1006.0
20260505184457 13 322 8.0 20.9 0.00 0.00 0.00 42 1006.1
20260505183957 13 315 8.0 24.1 0.00 0.00 0.00 41 1005.9
20260505183457 13 249 11.3 24.1 0.00 0.00 0.00 39 1005.8
20260505182957 13 245 11.3 24.1 0.00 0.00 0.00 38 1006.0
20260505182457 13 235 6.4 20.9 0.00 0.00 0.00 42 1006.0
20260505181957 13 307 6.4 25.7 0.00 0.00 0.00 45 1006.1
20260505181457 13 228 8.0 25.7 0.00 0.00 0.00 39 1006.1
20260505180957 14 286 9.7 24.1 0.00 0.00 0.00 39 1006.0
20260505180457 13 238 8.0 24.1 0.00 0.00 0.00 39 1005.8
20260505175957 13 276 11.3 22.5 0.00 0.00 0.00 39 1005.7
20260505175457 13 228 8.0 20.9 0.00 0.00 0.00 39 1005.7
20260505174957 14 320 8.0 20.9 0.00 0.00 0.00 39 1005.5
20260505174456 14 220 4.8 16.1 0.00 0.00 0.00 41 1005.4
20260505173956 14 325 3.2 14.5 0.00 0.00 0.00 44 1005.3
20260505173457 13 230 8.0 17.7 0.00 0.00 0.00 42 1005.3
20260505172956 13 354 6.4 17.7 0.00 0.00 0.00 38 1005.3
20260505172457 13 342 8.0 17.7 0.00 0.00 0.00 36 1005.3
20260505171957 14 330 6.4 16.1 0.00 0.00 0.00 37 1005.3
20260505171456 14 209 6.4 16.1 0.00 0.00 0.00 41 1005.3
20260505170957 14 229 8.0 16.1 0.00 0.00 0.00 35 1005.4
20260505170457 14 188 4.8 19.3 0.00 0.00 0.00 38 1005.3
20260505165458 14 293 8.0 14.5 0.00 0.00 0.00 39 1005.4
20260505164958 13 317 9.7 14.5 0.00 0.00 0.00 37 1005.3
20260505164458 13 291 4.8 17.7 0.00 0.00 0.00 39 1005.2
20260505163958 13 255 8.0 24.1 0.00 0.00 0.00 39 1005.2
20260505163459 13 310 6.4 24.1 0.00 0.00 0.00 41 1005.4
20260505162958 13 271 9.7 20.9 0.00 0.00 0.00 39 1005.4
20260505151959 12 271 4.8 17.7 0.00 0.00 0.00 53 1005.9
20260505151457 11 224 6.4 14.5 0.00 0.00 0.00 54 1006.1
20260505150958 11 297 4.8 14.5 0.00 0.00 0.00 53 1006.1
20260505150458 11 262 4.8 14.5 0.00 0.00 0.00 55 1006.1
20260505140458 10 301 8.0 17.7 0.00 0.00 0.00 61 1005.3
20260505123457 10 311 4.8 11.3 0.00 0.00 0.00 74 1003.7
20260505122958 10 237 4.8 6.4 0.00 0.00 0.00 76 1003.6
20260505122457 10 289 0.0 4.8 0.00 0.00 0.00 77 1003.5
20260505121958 10 332 1.6 6.4 0.00 0.00 0.00 76 1003.4
20260505121458 10 337 1.6 6.4 0.00 0.00 0.00 76 1003.4
20260505120959 10 276 3.2 6.4 0.00 0.00 0.00 77 1003.3
20260505120458 9 293 0.0 4.8 0.00 0.00 0.00 78 1003.3
20260505112458 8 357 1.6 3.2 0.00 0.00 0.00 79 1002.9
20260505111958 8 266 0.0 6.4 0.00 0.00 0.00 79 1002.9
20260505111458 8 325 1.6 4.8 0.00 0.00 0.00 78 1002.7
20260505110958 8 316 0.0 4.8 0.00 0.00 0.00 77 1002.6
20260505110457 8 305 1.6 6.4 0.00 0.00 0.00 77 1002.6
20260505101958 10 271 0.0 8.0 0.00 0.00 0.00 66 1001.7
20260505101458 10 282 3.2 8.0 0.00 0.00 0.00 66 1001.5
20260505100958 10 294 1.6 4.8 0.00 0.00 0.00 65 1001.7
20260505100458 10 323 1.6 4.8 0.00 0.00 0.00 65 1001.5
20260505100000 10 298 1.6 4.8 0.00 0.00 0.00 64 1001.2
20260505095458 10 328 1.6 6.4 0.00 0.00 0.00 64 1001.0
20260505094958 10 324 1.6 6.4 0.00 0.00 0.00 64 1000.9
20260505094457 10 315 1.6 6.4 0.00 0.00 0.00 64 1000.7
20260505093958 10 285 1.6 8.0 0.00 0.00 0.00 64 1001.0
20260505093457 10 311 3.2 8.0 0.00 0.00 0.00 64 1001.0
20260505092959 10 276 3.2 8.0 0.00 0.00 0.00 66 1000.8
20260505092458 11 248 1.6 6.4 0.00 0.00 0.00 67 1000.7
20260505081458 11 238 0.0 8.0 0.00 0.00 0.00 68 999.4
20260505080958 11 266 1.6 8.0 0.00 0.00 0.00 68 999.4
20260505080458 11 292 0.0 3.2 0.00 0.00 0.00 68 999.3
20260505075959 12 253 0.0 4.8 0.00 0.00 0.00 68 999.2
20260505075457 12 276 1.6 8.0 0.00 0.00 0.00 68 999.3
20260505074957 12 266 0.0 6.4 0.00 0.00 0.00 68 999.0
20260505074458 12 295 0.0 8.0 0.00 0.00 0.00 69 999.1
20260505073957 12 307 1.6 8.0 0.00 0.00 0.00 69 999.1
20260505073458 12 252 1.6 8.0 0.00 0.00 0.00 69 998.8
20260505072957 12 290 1.6 6.4 0.00 0.00 0.00 71 998.9
20260505072457 12 248 1.6 8.0 0.00 0.00 0.00 71 999.0
20260505071958 12 222 1.6 14.5 0.00 0.00 0.00 71 999.2
20260505071457 12 285 1.6 14.5 0.00 0.00 0.00 71 999.0
20260505070957 12 250 3.2 8.0 0.00 0.00 0.00 71 999.1
20260505070457 12 276 3.2 8.0 0.00 0.00 0.00 70 998.9
20260505065957 13 239 1.6 9.7 0.00 0.00 0.00 70 999.1
20260505065458 13 222 3.2 9.7 0.00 0.00 0.00 69 998.9
20260505064957 13 276 0.0 3.2 0.00 0.00 0.00 69 998.7
20260505064457 13 304 1.6 4.8 0.00 0.00 0.00 70 998.7
20260505063957 13 271 1.6 4.8 0.00 0.00 0.00 69 998.8
20260505055959 14 261 1.6 4.8 0.00 0.00 0.00 73 998.5
20260505055457 14 297 1.6 4.8 0.00 0.00 0.00 73 998.6
20260505054958 15 295 1.6 8.0 0.00 0.00 0.00 73 998.6
20260505054458 15 233 4.8 8.0 0.00 0.00 0.00 72 998.5
20260505053958 15 213 3.2 9.7 0.00 0.00 0.00 72 998.7
20260505053500 15 219 1.6 12.9 0.00 0.00 0.00 71 998.4
20260505052958 15 242 4.8 17.7 0.00 0.00 0.00 71 998.5
20260505052458 15 326 6.4 17.7 0.00 0.00 0.00 71 998.3
20260505051957 15 271 1.6 17.7 0.00 0.00 0.00 70 998.2
20260505051457 15 222 3.2 17.7 0.00 0.00 0.00 70 998.3
20260505050957 16 276 1.6 12.9 0.00 0.00 0.00 70 998.1
20260505050456 16 226 1.6 12.9 0.00 0.00 0.00 69 997.8
20260505041456 17 255 6.4 20.9 0.00 0.00 0.00 70 997.8
20260505040956 17 230 8.0 20.9 0.00 0.00 0.00 70 997.9
20260505040457 17 226 6.4 14.5 0.00 0.00 0.00 70 998.0
20260505040004 17 271 4.8 20.9 0.00 0.00 0.00 70 998.0
20260505035457 17 284 6.4 20.9 0.00 0.00 0.00 70 997.9
20260505034958 17 229 4.8 20.9 0.00 0.00 0.00 69 997.9
20260505034458 17 257 4.8 16.1 0.00 0.00 0.00 69 997.9
20260505033958 17 244 4.8 19.3 0.00 0.00 0.00 68 997.6
20260505033458 17 199 6.4 19.3 0.00 0.00 0.00 68 997.4
20260505032958 17 309 4.8 12.9 0.00 0.00 0.00 67 997.3
20260505032458 17 235 4.8 17.7 0.00 0.00 0.00 67 997.0
20260505031958 18 217 4.8 19.3 0.00 0.00 0.00 66 996.8
20260505031459 18 276 3.2 22.5 0.00 0.00 0.00 66 996.8
20260505030958 18 217 6.4 30.6 0.00 0.00 0.00 67 996.5
20260505030458 18 230 8.0 30.6 0.00 0.00 0.00 66 996.8
20260505030000 18 226 4.8 16.1 0.00 0.00 0.00 64 996.8
20260505025458 18 303 6.4 14.5 0.00 0.00 0.00 63 997.4
20260505024958 18 234 4.8 17.7 0.00 0.00 0.00 62 996.8
20260505024458 18 200 6.4 22.5 0.00 0.00 0.00 61 996.4
20260505023958 19 207 6.4 22.5 0.00 0.00 0.00 61 996.2
20260505023458 19 227 9.7 27.4 0.00 0.00 0.00 61 996.1
20260505022958 19 258 11.3 27.4 0.00 0.00 0.00 62 996.2
20260505022458 20 271 12.9 24.1 0.00 0.00 0.00 64 996.2
20260505021959 20 259 9.7 22.5 0.00 0.00 0.00 65 996.0
20260505021458 20 243 8.0 22.5 0.00 0.00 0.00 64 996.1
20260505020958 20 194 4.8 14.5 0.00 0.00 0.00 63 996.3
20260505020459 21 305 4.8 20.9 0.00 0.00 0.00 63 996.6
20260505015958 21 216 11.3 20.9 0.00 0.00 0.00 60 996.9
20260505015458 21 223 8.0 19.3 0.00 0.00 0.00 58 996.5
20260505014958 21 342 9.7 25.7 0.00 0.00 0.00 57 996.0
20260505014458 21 214 11.3 24.1 0.00 0.00 0.00 56 995.7
20260505013959 21 195 12.9 27.4 0.00 0.00 0.00 55 995.7
20260505013459 21 244 9.7 27.4 0.00 0.00 0.00 53 995.7
20260505012958 21 169 6.4 16.1 0.00 0.00 0.00 51 995.6
20260505012458 21 215 4.8 24.1 0.00 0.00 0.00 50 995.6
20260505011958 21 192 9.7 24.1 0.00 0.00 0.00 49 995.5
20260505011458 21 201 6.4 19.3 0.00 0.00 0.00 47 995.3
20260505010958 21 172 8.0 17.7 0.00 0.00 0.00 45 995.5
20260505010457 21 225 8.0 25.7 0.00 0.00 0.00 44 995.5
20260505005958 21 276 6.4 19.3 0.00 0.00 0.00 43 995.4
20260505005459 21 228 6.4 25.7 0.00 0.00 0.00 43 995.5
20260505004957 21 266 4.8 25.7 0.00 0.00 0.00 42 995.5
20260505004458 21 216 11.3 20.9 0.00 0.00 0.00 41 995.3
20260505003958 22 193 3.2 16.1 0.00 0.00 0.00 41 995.3
20260505003457 22 236 8.0 16.1 0.00 0.00 0.00 41 995.2
20260505002958 22 184 6.4 14.5 0.00 0.00 0.00 40 995.1
20260505002458 22 212 4.8 14.5 0.00 0.00 0.00 40 995.0
20260505001958 22 223 6.4 14.5 0.00 0.00 0.00 40 994.9
20260505001458 22 226 8.0 17.7 0.00 0.00 0.00 39 994.9
20260505000958 22 240 8.0 17.7 0.00 0.00 0.00 39 994.9
20260505000458 22 305 4.8 12.9 0.00 0.00 0.00 40 994.9
20260505000000 22 333 4.8 17.7 0.00 0.00 0.00 40 994.9
20260504221959 23 337 9.7 24.1 0.00 0.00 0.00 37 996.9
20260504221458 23 235 9.7 27.4 0.00 0.00 0.00 38 997.0
20260504220958 23 266 9.7 27.4 0.00 0.00 0.00 37 996.9
20260504220458 23 212 6.4 22.5 0.00 0.00 0.00 37 997.0
20260504220000 23 322 4.8 24.1 0.00 0.00 0.00 38 997.0
20260504215459 23 236 8.0 32.2 0.00 0.00 0.00 38 997.0
20260504214959 23 232 14.5 32.2 0.00 0.00 0.00 37 997.1
20260504214459 23 209 12.9 29.0 0.00 0.00 0.00 36 997.1
20260504213959 23 280 6.4 29.0 0.00 0.00 0.00 39 997.2
20260504213459 23 225 9.7 38.6 0.00 0.00 0.00 37 997.3
20260504212959 23 295 14.5 38.6 0.00 0.00 0.00 36 997.4
20260504212459 23 309 9.7 29.0 0.00 0.00 0.00 36 997.4
20260504211959 23 199 3.2 19.3 0.00 0.00 0.00 36 997.4
20260504211459 23 226 8.0 30.6 0.00 0.00 0.00 35 997.4
20260504210959 23 221 11.3 30.6 0.00 0.00 0.00 35 997.6
20260504210459 23 195 11.3 22.5 0.00 0.00 0.00 37 997.6
20260504205958 23 236 11.3 25.7 0.00 0.00 0.00 34 997.6
20260504205459 23 281 14.5 27.4 0.00 0.00 0.00 34 997.5
20260504204958 23 214 12.9 29.0 0.00 0.00 0.00 33 997.7
20260504204457 22 331 6.4 29.0 0.00 0.00 0.00 33 998.0
20260504203958 22 243 14.5 32.2 0.00 0.00 0.00 32 998.0
20260504203458 23 240 17.7 32.2 0.00 0.00 0.00 30 998.0
20260504202958 23 328 8.0 24.1 0.00 0.00 0.00 32 997.9
20260504202458 23 271 6.4 30.6 0.00 0.00 0.00 35 997.9
20260504201958 23 234 11.3 30.6 0.00 0.00 0.00 34 998.0
20260504201458 23 219 8.0 20.9 0.00 0.00 0.00 33 998.0
20260504200958 23 224 9.7 30.6 0.00 0.00 0.00 35 998.1
20260504200459 23 271 12.9 30.6 0.00 0.00 0.00 34 998.2
20260504195958 23 221 11.3 27.4 0.00 0.00 0.00 32 998.4
20260504195458 23 259 9.7 27.4 0.00 0.00 0.00 32 998.3
20260504194959 23 235 6.4 30.6 0.00 0.00 0.00 32 998.3
20260504194458 23 313 14.5 30.6 0.00 0.00 0.00 29 998.4
20260504193958 23 313 11.3 27.4 0.00 0.00 0.00 32 998.5